[[{"header":{"parameterUnit":"m.s-1","parameterCategory":2,"la1":30.2991,"la2":30.254,"lo1":-89.0895,"lo2":-89.0444,"dy":0.0017,"dx":0.0017,"nx":28,"ny":28,"refTime":"2025-01-15T03:00:00:Z","depth":"0","parameterNumber":2,"parameterNumberName":"U-component_of_CURRENTS"},"data":[0,0,0,0,0,0,0,0,0,0,0,0,0,0,0,0,0,0,0,0,0,0,0,0,0,0,0,0,0,0,0,0,0,0,0,0,0,0,0,0,0,0,0,0,0,0,0,0,0,0,0,0,0,0,0,0,0,0,-0.2004,-0.2005,0,-0.2099,-0.21,-0.2101,-0.2085,-0.2083,-0.2082,-0.208,-0.2034,-0.2034,-0.2034,0,0,0,0,0,0,0,0,0,0,0,0,0,-0.1816,-0.1819,-0.2003,-0.2005,-0.2006,-0.2099,-0.21,-0.2101,-0.2085,-0.2083,-0.2082,-0.208,-0.2034,-0.2034,-0.2034,0,0,0,0,0,0,0,0,0,0,0,0,0,-0.1901,-0.182,-0.2003,-0.2011,-0.2013,-0.2099,-0.21,-0.2102,-0.2085,-0.2083,-0.2081,-0.2079,-0.2034,-0.2034,-0.2034,-0.208,0,0,-0.2035,-0.2035,0,0,0,0,0,0,0,0,-0.1896,-0.1908,-0.2008,-0.201,-0.2013,-0.208,-0.2017,-0.2088,-0.2086,-0.2056,-0.208,-0.2078,-0.2039,-0.2039,-0.2061,-0.2077,-0.2075,-0.2035,-0.2035,-0.2035,-0.2035,0,0,0,0,0,0,0,-0.189,-0.1904,-0.2039,-0.201,-0.2013,-0.2013,-0.2022,-0.2031,-0.2054,-0.2058,-0.2058,-0.2072,-0.2038,-0.2061,-0.2059,-0.2075,-0.2035,-0.2035,-0.2035,-0.2035,-0.2131,-0.2133,0,0,0,0,0,0,-0.1886,-0.1899,-0.2036,-0.2042,-0.195,-0.2018,-0.2029,-0.2059,-0.2057,-0.2057,-0.2074,-0.2071,-0.2061,-0.2059,-0.2057,-0.2105,-0.2035,-0.2035,-0.2035,-0.2129,-0.2132,-0.2134,0,0,0,0,0,0,-0.1882,-0.1898,-0.2032,-0.1973,-0.199,-0.2024,-0.2058,-0.2062,-0.2079,-0.2072,-0.2067,-0.2086,-0.2059,-0.2057,-0.2077,-0.2102,-0.2035,-0.2035,-0.2126,-0.213,-0.2133,-0.2204,0,0,0,0,0,0,-0.1876,-0.1896,-0.1912,-0.1973,-0.1993,-0.2093,-0.206,-0.2065,-0.2093,-0.209,-0.2081,-0.2075,-0.2057,-0.2077,-0.2077,-0.2102,-0.2035,-0.2123,-0.2128,-0.2132,-0.2199,-0.221,-0.2219,0,0,0,0,0,-0.1869,-0.191,-0.1913,-0.1929,-0.2016,-0.2095,-0.2106,-0.212,-0.2095,-0.2122,-0.2114,-0.2075,-0.2105,-0.208,-0.2079,-0.2104,-0.2121,-0.2126,-0.2132,-0.2194,-0.2207,-0.2219,0,0,0,0,0,0,-0.1828,-0.1914,-0.1918,-0.1978,-0.2033,-0.2093,-0.2119,-0.2127,-0.2146,-0.2133,-0.2108,-0.2104,-0.2135,-0.2118,-0.209,-0.2149,-0.2106,-0.2112,-0.2154,-0.2167,-0.2177,-0.2152,-0.2036,0,0,0,0,0,-0.183,-0.1887,-0.1956,-0.2003,-0.2031,-0.2073,-0.2102,-0.212,-0.2149,-0.2155,-0.215,-0.2148,-0.2164,-0.216,-0.2176,-0.2204,-0.2148,-0.2222,-0.2232,-0.2241,-0.2224,-0.2182,-0.2185,-0.2152,-0.2152,-0.2152,0,0,-0.1824,-0.188,-0.1908,-0.1998,-0.2036,-0.2102,-0.2085,-0.2144,-0.2188,-0.2146,-0.219,-0.2188,-0.2184,-0.2223,-0.2234,-0.2204,-0.2223,-0.2248,-0.2255,-0.2232,-0.2188,-0.219,-0.2193,-0.2156,-0.2155,-0.2155,0,0,-0.1855,-0.1893,-0.1952,-0.2008,-0.2083,-0.2122,-0.2139,-0.2206,-0.222,-0.2276,-0.2254,-0.2263,-0.2295,-0.2291,-0.2293,-0.2369,-0.2287,-0.238,-0.2398,-0.2359,-0.236,-0.236,-0.2286,-0.2279,-0.2374,-0.2374,-0.2374,0,-0.1837,-0.1924,-0.1978,-0.2051,-0.2088,-0.2132,-0.2189,-0.2238,-0.2299,-0.2294,-0.2297,-0.232,-0.2326,-0.2339,-0.2377,-0.2387,-0.2336,-0.2347,-0.2367,-0.2367,-0.2365,-0.229,-0.2281,-0.2378,-0.2378,-0.2378,-0.2377,0,-0.1923,-0.1981,-0.2022,-0.2126,-0.2176,-0.2238,-0.2306,-0.2345,-0.236,-0.2381,-0.2399,-0.2413,-0.2401,-0.2431,-0.2433,-0.2435,-0.2391,-0.239,-0.2325,-0.2372,-0.2291,-0.228,-0.2384,-0.2383,-0.2382,-0.2381,0,0,-0.19,-0.2049,-0.2057,-0.2083,-0.2213,-0.2243,-0.2335,-0.239,-0.2385,-0.245,-0.243,-0.2497,-0.2461,-0.2462,-0.2457,-0.2442,-0.2412,-0.2417,-0.2413,-0.2323,-0.2291,-0.2226,-0.2208,-0.2408,-0.2407,-0.2406,-0.2233,0,-0.1937,-0.2049,-0.2127,-0.2199,-0.2249,-0.231,-0.2368,-0.2417,-0.2444,-0.2442,-0.2454,-0.244,-0.2488,-0.2454,-0.2463,-0.2416,-0.2388,-0.2456,-0.2276,-0.2269,-0.219,-0.2196,-0.211,-0.1946,-0.2222,-0.2221,-0.2219,0,-0.1993,-0.2051,-0.2131,-0.219,-0.221,-0.2256,-0.2283,-0.2341,-0.2376,-0.2384,-0.2388,-0.2383,-0.2378,-0.2404,-0.2348,-0.2384,-0.2345,-0.2317,-0.2309,-0.221,-0.2186,-0.1947,-0.1915,-0.1915,-0.2202,-0.2203,-0.2205,0,-0.1917,-0.2037,-0.2075,-0.2111,-0.2209,-0.2214,-0.2247,-0.2298,-0.2289,-0.2312,-0.2273,-0.2299,-0.2248,-0.2247,-0.2229,-0.2269,-0.2142,-0.2178,-0.2077,-0.207,-0.1939,-0.1923,-0.1863,-0.2122,-0.2123,-0.2123,-0.2124,0,-0.1918,-0.1936,-0.2027,-0.2039,-0.2019,-0.2124,-0.209,-0.213,-0.2154,-0.2113,-0.2199,-0.2149,-0.2205,-0.2158,-0.2174,-0.2078,-0.2088,-0.2058,-0.2021,-0.1964,-0.1953,-0.1901,-0.1931,-0.2117,-0.2118,-0.2119,-0.212,0,-0.1812,-0.1908,-0.1913,-0.1978,-0.1984,-0.1946,-0.1956,-0.1937,-0.1986,-0.1931,-0.1921,-0.1978,-0.1937,-0.197,-0.1932,-0.1949,-0.1855,-0.1862,-0.1779,-0.1738,-0.1667,-0.1705,-0.156,-0.1517,-0.1711,-0.1708,-0.1706,0,-0.1758,-0.1767,-0.1795,-0.177,-0.1783,-0.1761,-0.1753,-0.1823,-0.1808,-0.1818,-0.1774,-0.1742,-0.172,-0.1651,-0.1681,-0.165,-0.1701,-0.1547,-0.1631,-0.1629,-0.1644,-0.1678,-0.1656,-0.1474,-0.147,-0.1467,-0.1465,0,-0.1594,-0.161,-0.16,-0.1575,-0.155,-0.1526,-0.1524,-0.1493,-0.1578,-0.155,-0.1521,-0.1503,-0.1474,-0.1441,-0.1428,-0.1417,-0.1509,-0.1478,-0.1495,-0.1462,-0.1472,-0.1423,-0.1611,-0.1436,-0.1439,-0.1441,-0.1442,-0.1444,-0.1414,-0.136,-0.1367,-0.1333,-0.1321,-0.1305,-0.1253,-0.1289,-0.1255,-0.1242,-0.1295,-0.1273,-0.1284,-0.127,-0.1246,-0.1205,-0.128,-0.1207,-0.1247,-0.1279,-0.1259,-0.1375,-0.1164,-0.1166,-0.1167,-0.1168,-0.1169,0,-0.1176,-0.1169,-0.1129,-0.1102,-0.1063,-0.1124,-0.111,-0.1077,-0.1032,-0.1066,-0.1052,-0.1087,-0.1043,-0.1074,-0.1059,-0.1017,-0.1013,-0.1,-0.1042,-0.103,-0.1123,-0.1139,-0.0891,-0.0891,-0.0891,-0.0891,-0.0891,-0.0891,-0.1049,-0.0956,-0.0977,-0.0872,-0.0866,-0.0801,-0.0784,-0.0774,-0.0789,-0.0786,-0.0838,-0.0909,-0.0984,-0.1059,-0.0999,-0.094,-0.0947,-0.0886,-0.0937,-0.104,-0.1064,-0.1088,-0.1111,-0.0861,-0.0861,-0.0796,-0.0795,-0.0795]},{"header":{"parameterUnit":"m.s-1","parameterCategory":2,"la1":30.2991,"la2":30.254,"lo1":-89.0895,"lo2":-89.0444,"dy":0.0017,"dx":0.0017,"nx":28,"ny":28,"refTime":"2025-01-15T03:00:00:Z","depth":"0","parameterNumber":3,"parameterNumberName":"V-component_of_CURRENTS"},"data":[0,0,0,0,0,0,0,0,0,0,0,0,0,0,0,0,0,0,0,0,0,0,0,0,0,0,0,0,0,0,0,0,0,0,0,0,0,0,0,0,0,0,0,0,0,0,0,0,0,0,0,0,0,0,0,0,0,0,-0.0946,-0.0946,0,-0.0901,-0.0901,-0.09,-0.0857,-0.0857,-0.0856,-0.0856,-0.0709,-0.0706,-0.0702,0,0,0,0,0,0,0,0,0,0,0,0,0,-0.088,-0.0882,-0.0947,-0.0946,-0.0946,-0.0902,-0.0901,-0.09,-0.0857,-0.0857,-0.0856,-0.0856,-0.071,-0.0706,-0.0702,0,0,0,0,0,0,0,0,0,0,0,0,0,-0.0878,-0.0883,-0.0947,-0.092,-0.0918,-0.0902,-0.0901,-0.09,-0.0857,-0.0857,-0.0856,-0.0856,-0.0712,-0.0707,-0.0701,-0.0679,0,0,-0.0685,-0.0683,0,0,0,0,0,0,0,0,-0.0878,-0.088,-0.0925,-0.0922,-0.0919,-0.0886,-0.0824,-0.0822,-0.0857,-0.0878,-0.0856,-0.0855,-0.076,-0.0751,-0.0743,-0.0673,-0.0666,-0.0684,-0.0681,-0.0679,-0.0677,0,0,0,0,0,0,0,-0.0879,-0.0881,-0.0927,-0.0924,-0.0921,-0.0872,-0.0872,-0.0823,-0.082,-0.0876,-0.0874,-0.0872,-0.0758,-0.0748,-0.0739,-0.0664,-0.0685,-0.068,-0.0677,-0.0674,-0.0566,-0.0566,0,0,0,0,0,0,-0.0895,-0.0883,-0.0928,-0.0926,-0.0899,-0.0874,-0.0874,-0.0896,-0.0822,-0.0812,-0.0872,-0.087,-0.0757,-0.0745,-0.0733,-0.0685,-0.0679,-0.0674,-0.0671,-0.0565,-0.0566,-0.0566,0,0,0,0,0,0,-0.0895,-0.0901,-0.093,-0.0902,-0.0903,-0.0877,-0.0901,-0.0895,-0.0885,-0.0821,-0.0808,-0.0868,-0.0756,-0.0741,-0.0691,-0.0679,-0.0671,-0.0667,-0.0565,-0.0565,-0.0566,-0.0599,0,0,0,0,0,0,-0.0893,-0.0902,-0.0923,-0.0905,-0.0905,-0.0934,-0.0902,-0.0895,-0.0885,-0.0882,-0.0813,-0.0799,-0.0755,-0.0699,-0.0685,-0.0672,-0.0662,-0.0564,-0.0565,-0.0566,-0.0598,-0.0601,-0.0604,0,0,0,0,0,-0.0892,-0.0927,-0.0925,-0.093,-0.0937,-0.0935,-0.0931,-0.0907,-0.0886,-0.0892,-0.0837,-0.0801,-0.0693,-0.0695,-0.0679,-0.0663,-0.0564,-0.0565,-0.0566,-0.0597,-0.06,-0.0603,0,0,0,0,0,0,-0.0902,-0.0925,-0.0923,-0.0962,-0.0955,-0.0929,-0.0929,-0.0911,-0.0875,-0.0865,-0.0798,-0.0781,-0.0734,-0.0701,-0.0704,-0.0637,-0.0625,-0.0623,-0.0654,-0.0657,-0.066,-0.0669,-0.0658,0,0,0,0,0,-0.0919,-0.0954,-0.0954,-0.0981,-0.098,-0.0954,-0.0949,-0.0936,-0.0902,-0.0887,-0.0836,-0.078,-0.0726,-0.0694,-0.065,-0.0608,-0.0572,-0.0592,-0.0595,-0.0598,-0.0596,-0.0537,-0.0533,-0.0568,-0.0568,-0.0568,0,0,-0.0925,-0.0945,-0.0961,-0.0986,-0.0973,-0.0974,-0.0949,-0.0949,-0.0941,-0.0874,-0.0839,-0.0788,-0.0719,-0.0675,-0.0651,-0.0642,-0.057,-0.0598,-0.0601,-0.0598,-0.0537,-0.0533,-0.053,-0.0569,-0.0569,-0.0569,0,0,-0.0947,-0.0976,-0.1004,-0.1003,-0.1003,-0.0994,-0.0997,-0.0976,-0.0961,-0.0929,-0.0872,-0.0815,-0.0745,-0.0688,-0.0649,-0.0642,-0.059,-0.0633,-0.0644,-0.0587,-0.0583,-0.0579,-0.0534,-0.0526,-0.0631,-0.0631,-0.0631,0,-0.0952,-0.0994,-0.1006,-0.1018,-0.1016,-0.1004,-0.101,-0.0997,-0.096,-0.0934,-0.0927,-0.0804,-0.0748,-0.0669,-0.0667,-0.0645,-0.0612,-0.0634,-0.0589,-0.0585,-0.058,-0.0535,-0.0525,-0.0633,-0.0632,-0.0632,-0.0632,0,-0.0981,-0.101,-0.1021,-0.1041,-0.1039,-0.105,-0.1032,-0.1029,-0.1007,-0.0971,-0.0905,-0.0834,-0.0756,-0.0733,-0.0691,-0.0629,-0.0616,-0.0601,-0.0579,-0.0578,-0.0531,-0.052,-0.0635,-0.0634,-0.0634,-0.0633,0,0,-0.1007,-0.104,-0.1041,-0.1044,-0.1056,-0.1049,-0.1052,-0.1033,-0.1004,-0.0972,-0.0921,-0.0834,-0.0787,-0.0742,-0.0684,-0.0634,-0.0572,-0.0609,-0.0605,-0.0561,-0.0452,-0.0415,-0.04,-0.0549,-0.0547,-0.0546,-0.0434,0,-0.1025,-0.1059,-0.1066,-0.1074,-0.1087,-0.1077,-0.1068,-0.1042,-0.1008,-0.096,-0.0892,-0.0817,-0.0793,-0.0743,-0.0694,-0.0594,-0.0546,-0.0604,-0.0461,-0.0457,-0.0421,-0.0387,-0.0358,-0.0253,-0.0423,-0.0421,-0.042,0,-0.1051,-0.1072,-0.1095,-0.1092,-0.109,-0.1084,-0.1056,-0.1045,-0.0984,-0.095,-0.0884,-0.0824,-0.0735,-0.0724,-0.0576,-0.0616,-0.0541,-0.0478,-0.0471,-0.0416,-0.04,-0.028,-0.0227,-0.0131,-0.0404,-0.0405,-0.0406,0,-0.1063,-0.1085,-0.1105,-0.1106,-0.1104,-0.1094,-0.1083,-0.1033,-0.0999,-0.0934,-0.089,-0.0797,-0.0729,-0.064,-0.0523,-0.054,-0.0369,-0.0371,-0.0272,-0.0269,-0.0205,-0.0199,-0.0038,-0.0273,-0.0273,-0.0273,-0.0274,0,-0.1092,-0.1098,-0.1108,-0.1113,-0.1095,-0.1093,-0.1054,-0.1028,-0.0977,-0.0914,-0.0873,-0.0805,-0.0703,-0.06,-0.0514,-0.0356,-0.0358,-0.0261,-0.0229,-0.0218,-0.0215,-0.0097,-0.0071,-0.0269,-0.027,-0.0271,-0.0271,0,-0.1088,-0.1118,-0.1119,-0.1114,-0.1103,-0.1079,-0.1032,-0.1,-0.0964,-0.0889,-0.0867,-0.0783,-0.0655,-0.0554,-0.0391,-0.0321,-0.0119,-0.0137,-0.014,-0.011,0.0063,0.0085,0.0278,0.0327,-0.0004,-0.0002,-0.0,0,-0.1085,-0.1097,-0.1089,-0.1078,-0.1069,-0.1041,-0.102,-0.0989,-0.0951,-0.0864,-0.0822,-0.0705,-0.0608,-0.0381,-0.0242,-0.0082,-0.0026,0.004,0.0018,0.0096,0.0144,0.0157,0.0184,0.0087,0.0089,0.0091,0.0092,0,-0.1038,-0.1041,-0.1036,-0.1031,-0.1011,-0.0984,-0.0951,-0.0922,-0.0884,-0.0826,-0.0733,-0.0657,-0.0464,-0.0279,-0.0088,0.0008,0.0116,0.0081,0.0177,0.0247,0.026,0.0313,-0.0025,0.0107,0.0106,0.0105,0.0104,0.0103,-0.0965,-0.0952,-0.0955,-0.0946,-0.0938,-0.0914,-0.0873,-0.0852,-0.0791,-0.0699,-0.0664,-0.0544,-0.0312,-0.0042,0.0068,0.03,0.026,0.0368,0.0393,0.0404,0.0443,0.013,0.0284,0.0284,0.0283,0.0283,0.0283,0,-0.0842,-0.0856,-0.0861,-0.0851,-0.0835,-0.085,-0.0812,-0.0772,-0.0698,-0.0643,-0.0561,-0.0331,-0.0067,0.0146,0.046,0.0599,0.0613,0.0662,0.069,0.0705,0.0456,0.0451,0.063,0.063,0.063,0.063,0.0629,0.0629,-0.0776,-0.0745,-0.0781,-0.0746,-0.0747,-0.07,-0.0672,-0.0631,-0.0586,-0.0463,-0.0358,-0.0309,-0.0009,0.0528,0.0839,0.0869,0.0966,0.0972,0.1013,0.0837,0.0811,0.0786,0.079,0.1037,0.1037,0.1253,0.1255,0.1257]}],[{"header":{"parameterUnit":"m.s-1","parameterCategory":2,"la1":30.2991,"la2":30.254,"lo1":-89.0895,"lo2":-89.0444,"dy":0.0017,"dx":0.0017,"nx":28,"ny":28,"refTime":"2025-01-15T03:00:00:Z","depth":"2","parameterNumber":2,"parameterNumberName":"U-component_of_CURRENTS"},"data":[0,0,0,0,0,0,0,0,0,0,0,0,0,0,0,0,0,0,0,0,0,0,0,0,0,0,0,0,0,0,0,0,0,0,0,0,0,0,0,0,0,0,0,0,0,0,0,0,0,0,0,0,0,0,0,0,0,0,-0.1384,-0.1386,0,-0.142,-0.1419,-0.1419,-0.143,-0.1431,-0.1432,-0.1433,-0.1471,-0.1471,-0.1471,0,0,0,0,0,0,0,0,0,0,0,0,0,-0.1283,-0.1284,-0.1384,-0.1386,-0.1387,-0.142,-0.1419,-0.1419,-0.143,-0.1431,-0.1432,-0.1433,-0.1471,-0.1471,-0.1471,0,0,0,0,0,0,0,0,0,0,0,0,0,-0.1312,-0.1284,-0.1384,-0.1406,-0.1409,-0.142,-0.1419,-0.1418,-0.1429,-0.1431,-0.1432,-0.1434,-0.1471,-0.1471,-0.1471,-0.1443,0,0,-0.1472,-0.1472,0,0,0,0,0,0,0,0,-0.131,-0.1314,-0.1401,-0.1404,-0.1408,-0.1433,-0.1398,-0.1431,-0.1429,-0.1409,-0.1433,-0.1434,-0.1465,-0.1466,-0.1452,-0.1445,-0.1447,-0.1472,-0.1472,-0.1472,-0.1472,0,0,0,0,0,0,0,-0.1308,-0.1312,-0.1386,-0.1403,-0.1407,-0.1401,-0.1405,-0.1403,-0.1419,-0.141,-0.1415,-0.1438,-0.1466,-0.1451,-0.1453,-0.1447,-0.1472,-0.1472,-0.1472,-0.1472,-0.151,-0.1511,0,0,0,0,0,0,-0.1329,-0.1311,-0.1385,-0.1388,-0.1376,-0.1402,-0.1407,-0.1413,-0.1419,-0.1425,-0.1437,-0.1438,-0.145,-0.1453,-0.1455,-0.1523,-0.1472,-0.1472,-0.1472,-0.1509,-0.1511,-0.1512,0,0,0,0,0,0,-0.1327,-0.1335,-0.1384,-0.1361,-0.1368,-0.1404,-0.141,-0.1414,-0.1434,-0.1441,-0.1445,-0.146,-0.1452,-0.1454,-0.1487,-0.1521,-0.1472,-0.1472,-0.1508,-0.151,-0.1511,-0.1596,0,0,0,0,0,0,-0.1323,-0.1333,-0.1336,-0.1362,-0.1371,-0.1414,-0.141,-0.1414,-0.145,-0.1453,-0.1461,-0.1464,-0.1453,-0.1487,-0.1488,-0.1521,-0.1472,-0.1507,-0.1509,-0.1511,-0.1592,-0.16,-0.1607,0,0,0,0,0,-0.1319,-0.1335,-0.1335,-0.1345,-0.1376,-0.1416,-0.1418,-0.144,-0.145,-0.1461,-0.1475,-0.1466,-0.1498,-0.1488,-0.1488,-0.1522,-0.1506,-0.1509,-0.1511,-0.1589,-0.1599,-0.1607,0,0,0,0,0,0,-0.1295,-0.1339,-0.134,-0.1368,-0.1399,-0.1423,-0.1446,-0.1457,-0.1471,-0.1491,-0.1478,-0.1482,-0.1525,-0.1506,-0.1496,-0.1536,-0.15,-0.1502,-0.1559,-0.1568,-0.1576,-0.1537,-0.1472,0,0,0,0,0,-0.1291,-0.1308,-0.1351,-0.1369,-0.1397,-0.1421,-0.1439,-0.1465,-0.149,-0.1498,-0.1497,-0.1506,-0.1525,-0.1536,-0.1541,-0.156,-0.1517,-0.158,-0.1588,-0.1594,-0.1561,-0.155,-0.1554,-0.1518,-0.1518,-0.1518,0,0,-0.1289,-0.1314,-0.1325,-0.1365,-0.1392,-0.1438,-0.1434,-0.1491,-0.151,-0.1501,-0.152,-0.1538,-0.1537,-0.1567,-0.1583,-0.1562,-0.1583,-0.1597,-0.1603,-0.1565,-0.1553,-0.1556,-0.1559,-0.152,-0.152,-0.1519,0,0,-0.1301,-0.132,-0.1344,-0.1378,-0.1442,-0.1469,-0.1497,-0.1538,-0.1536,-0.157,-0.1571,-0.1595,-0.1617,-0.161,-0.1615,-0.1658,-0.1628,-0.1684,-0.1687,-0.168,-0.1682,-0.1683,-0.1636,-0.1632,-0.1683,-0.1683,-0.1683,0,-0.1304,-0.1323,-0.1357,-0.1398,-0.1433,-0.1492,-0.1536,-0.1548,-0.1584,-0.157,-0.1594,-0.1611,-0.1625,-0.1637,-0.1665,-0.1674,-0.1657,-0.1661,-0.1689,-0.169,-0.169,-0.164,-0.1635,-0.1687,-0.1687,-0.1686,-0.1686,0,-0.134,-0.1355,-0.1384,-0.1446,-0.1491,-0.1544,-0.1592,-0.1607,-0.1632,-0.1634,-0.1648,-0.166,-0.1657,-0.1689,-0.1699,-0.1712,-0.1696,-0.1708,-0.1667,-0.1698,-0.1644,-0.1638,-0.1694,-0.1692,-0.1691,-0.169,0,0,-0.1349,-0.1395,-0.1404,-0.1416,-0.1521,-0.1558,-0.1599,-0.1625,-0.162,-0.1658,-0.1637,-0.1685,-0.1684,-0.1685,-0.1701,-0.1703,-0.1711,-0.1718,-0.1716,-0.1669,-0.1676,-0.162,-0.1606,-0.1752,-0.1752,-0.1751,-0.1639,0,-0.1364,-0.1411,-0.1441,-0.1496,-0.1534,-0.1582,-0.1592,-0.1627,-0.1648,-0.164,-0.1651,-0.1659,-0.1687,-0.1701,-0.171,-0.1712,-0.1698,-0.1738,-0.1651,-0.1646,-0.1592,-0.1598,-0.1508,-0.1398,-0.1632,-0.1631,-0.163,0,-0.1394,-0.1413,-0.1456,-0.1475,-0.1496,-0.1541,-0.1569,-0.1583,-0.1593,-0.1599,-0.1618,-0.1633,-0.1638,-0.1669,-0.1646,-0.1683,-0.1675,-0.1672,-0.1668,-0.1569,-0.1577,-0.1403,-0.1376,-0.1618,-0.1619,-0.162,-0.1621,0,-0.1376,-0.1421,-0.144,-0.1464,-0.1512,-0.1516,-0.1545,-0.1569,-0.1543,-0.1577,-0.1572,-0.1592,-0.1585,-0.1598,-0.16,-0.1634,-0.1567,-0.1605,-0.1525,-0.152,-0.1393,-0.1378,-0.1568,-0.1568,-0.1568,-0.1569,-0.1569,0,-0.1376,-0.1388,-0.1426,-0.1441,-0.1425,-0.1494,-0.1476,-0.1488,-0.1505,-0.1475,-0.1543,-0.1517,-0.1576,-0.1554,-0.1572,-0.151,-0.1534,-0.1496,-0.1486,-0.1421,-0.141,-0.1562,-0.1563,-0.1565,-0.1565,-0.1566,-0.1567,0,-0.133,-0.1372,-0.1373,-0.1408,-0.1411,-0.1403,-0.1414,-0.1394,-0.143,-0.1399,-0.1409,-0.1443,-0.1423,-0.1445,-0.1443,-0.1438,-0.1412,-0.1383,-0.1283,-0.1264,-0.1373,-0.1379,-0.1271,-0.1268,-0.1265,-0.1263,-0.1261,0,-0.1296,-0.1298,-0.1313,-0.1301,-0.1311,-0.1311,-0.1292,-0.1339,-0.1329,-0.1335,-0.1309,-0.1303,-0.1277,-0.1238,-0.125,-0.1225,-0.1304,-0.1122,-0.1167,-0.134,-0.1341,-0.1352,-0.1362,-0.1028,-0.1024,-0.1022,-0.1019,0,-0.1197,-0.121,-0.1198,-0.1179,-0.1173,-0.1151,-0.1153,-0.1137,-0.1182,-0.1166,-0.1142,-0.1128,-0.1103,-0.1057,-0.1044,-0.1027,-0.1129,-0.1061,-0.1255,-0.113,-0.1106,-0.111,-0.1128,-0.0994,-0.0996,-0.0998,-0.0999,-0.1,-0.1093,-0.1051,-0.1047,-0.102,-0.1016,-0.1003,-0.0965,-0.0986,-0.0956,-0.0941,-0.0978,-0.0946,-0.0955,-0.0896,-0.0859,-0.0852,-0.0934,-0.0919,-0.093,-0.0944,-0.0949,-0.0923,-0.0774,-0.0775,-0.0777,-0.0777,-0.0778,0,-0.0942,-0.0925,-0.0891,-0.087,-0.084,-0.0883,-0.0864,-0.0832,-0.0786,-0.0802,-0.0787,-0.0723,-0.0695,-0.0723,-0.0675,-0.0664,-0.0679,-0.0639,-0.0673,-0.0698,-0.072,-0.0717,-0.0478,-0.0478,-0.0477,-0.0476,0,0,-0.0871,-0.0795,-0.0789,-0.0709,-0.0703,-0.0644,-0.0626,-0.0601,-0.0602,-0.0565,-0.0571,-0.0639,-0.068,-0.058,-0.0553,-0.0512,-0.0596,-0.048,-0.0717,-0.0779,-0.08,-0.0873,-0.0894,0,0,0,0,0]},{"header":{"parameterUnit":"m.s-1","parameterCategory":2,"la1":30.2991,"la2":30.254,"lo1":-89.0895,"lo2":-89.0444,"dy":0.0017,"dx":0.0017,"nx":28,"ny":28,"refTime":"2025-01-15T03:00:00:Z","depth":"2","parameterNumber":3,"parameterNumberName":"V-component_of_CURRENTS"},"data":[0,0,0,0,0,0,0,0,0,0,0,0,0,0,0,0,0,0,0,0,0,0,0,0,0,0,0,0,0,0,0,0,0,0,0,0,0,0,0,0,0,0,0,0,0,0,0,0,0,0,0,0,0,0,0,0,0,0,-0.001,-0.001,0,0.009,0.0091,0.0093,0.0135,0.0134,0.0133,0.0132,0.016,0.0162,0.0164,0,0,0,0,0,0,0,0,0,0,0,0,0,-0.0083,-0.0081,-0.001,-0.001,-0.0009,0.0089,0.0092,0.0094,0.0136,0.0134,0.0133,0.0132,0.016,0.0162,0.0164,0,0,0,0,0,0,0,0,0,0,0,0,0,-0.0015,-0.0081,-0.001,0.0016,0.0019,0.0089,0.0092,0.0094,0.0136,0.0134,0.0133,0.0131,0.0159,0.0161,0.0164,0.0212,0,0,0.0172,0.0173,0,0,0,0,0,0,0,0,-0.0019,-0.0011,0.0012,0.0015,0.0018,0.009,0.0076,0.0127,0.0136,0.0102,0.0132,0.013,0.0125,0.013,0.0167,0.0214,0.0215,0.0172,0.0174,0.0175,0.0176,0,0,0,0,0,0,0,-0.0024,-0.0015,0.0039,0.0012,0.0016,0.005,0.0059,0.0087,0.0127,0.0105,0.0106,0.0102,0.0127,0.0165,0.0168,0.0215,0.0172,0.0174,0.0176,0.0177,0.029,0.0291,0,0,0,0,0,0,-0.0057,-0.0019,0.0036,0.0041,-0.0016,0.0052,0.0062,0.0076,0.0129,0.0133,0.0103,0.0103,0.0161,0.0165,0.0169,0.0169,0.0175,0.0177,0.0179,0.0288,0.029,0.0292,0,0,0,0,0,0,-0.0059,-0.0053,0.0032,0.0004,0.0016,0.0053,0.0071,0.0079,0.009,0.0126,0.0131,0.0101,0.016,0.0165,0.0182,0.0171,0.0179,0.0181,0.0287,0.0289,0.0291,0.0206,0,0,0,0,0,0,-0.0061,-0.0053,-0.0051,0.0003,0.0016,0.006,0.0071,0.0082,0.0087,0.0088,0.0126,0.0129,0.0159,0.0178,0.0185,0.0175,0.0183,0.0285,0.0288,0.029,0.0207,0.0205,0.0203,0,0,0,0,0,-0.0063,-0.0054,-0.0051,-0.0045,0.0018,0.0059,0.0071,0.0098,0.0088,0.0102,0.0123,0.0127,0.0201,0.0181,0.0189,0.0179,0.0284,0.0287,0.029,0.0208,0.0205,0.0203,0,0,0,0,0,0,-0.0077,-0.0048,-0.0044,-0.0024,0.0004,0.0062,0.0063,0.0083,0.0117,0.0091,0.0137,0.0144,0.0159,0.0192,0.017,0.0228,0.0246,0.0251,0.0181,0.0179,0.0177,0.0171,0.0185,0,0,0,0,0,-0.0084,-0.0075,-0.0039,-0.0026,-0.0027,0.0013,0.0029,0.0039,0.007,0.0082,0.0125,0.0158,0.0188,0.0196,0.0237,0.0259,0.0283,0.0266,0.0264,0.0262,0.0267,0.0284,0.0283,0.0302,0.0302,0.0302,0,0,-0.0102,-0.0073,-0.0078,-0.0031,-0.0017,-0.0009,0.002,0.0018,0.0042,0.0077,0.0121,0.0148,0.0195,0.0225,0.0235,0.024,0.0273,0.0266,0.0262,0.027,0.0287,0.0285,0.0283,0.0304,0.0304,0.0304,0,0,-0.0122,-0.0101,-0.0109,-0.0087,-0.0077,-0.0048,-0.0059,-0.0012,0.0021,0.006,0.009,0.0113,0.0179,0.0213,0.0234,0.0251,0.0263,0.0261,0.0236,0.0252,0.0249,0.0247,0.0274,0.0275,0.0256,0.0256,0.0256,0,-0.0144,-0.0124,-0.0104,-0.0098,-0.0094,-0.0075,-0.0085,-0.0037,0.0022,0.0049,0.0057,0.0152,0.0179,0.0211,0.0218,0.0241,0.0254,0.0226,0.0243,0.0242,0.0241,0.027,0.0272,0.0253,0.0253,0.0253,0.0254,0,-0.0175,-0.0152,-0.0158,-0.0143,-0.0139,-0.0139,-0.0105,-0.0071,-0.0042,0.0006,0.0057,0.0113,0.0165,0.0178,0.0197,0.0212,0.0224,0.0233,0.0233,0.0233,0.0265,0.0268,0.0247,0.0249,0.025,0.0251,0,0,-0.0219,-0.0184,-0.0183,-0.018,-0.0162,-0.0165,-0.0137,-0.0091,-0.0075,-0.0005,0.0031,0.0094,0.0115,0.0143,0.0172,0.0187,0.0186,0.0196,0.0199,0.0195,0.022,0.0229,0.0235,0.0178,0.0179,0.0179,0.0241,0,-0.0238,-0.0235,-0.021,-0.0217,-0.0225,-0.0193,-0.0158,-0.013,-0.0083,-0.0033,0.0023,0.0064,0.0105,0.0107,0.0131,0.0172,0.0192,0.0169,0.0247,0.025,0.0234,0.0238,0.0214,0.0267,0.0245,0.0246,0.0246,0,-0.0269,-0.0254,-0.0269,-0.024,-0.0246,-0.0248,-0.0227,-0.0191,-0.0124,-0.009,-0.0048,0.0001,0.0048,0.007,0.0153,0.0128,0.017,0.0206,0.0209,0.0251,0.0266,0.0269,0.0275,0.0253,0.0252,0.0252,0.0251,0,-0.032,-0.029,-0.0301,-0.0296,-0.0271,-0.0269,-0.0258,-0.0216,-0.0179,-0.0137,-0.012,-0.0053,-0.002,0.0041,0.0135,0.013,0.0217,0.0223,0.0283,0.0284,0.03,0.0303,0.0277,0.0277,0.0277,0.0277,0.0276,0,-0.0332,-0.0339,-0.0324,-0.033,-0.0332,-0.0327,-0.0319,-0.0286,-0.025,-0.0218,-0.0161,-0.0121,-0.0031,0.0042,0.0115,0.0215,0.0209,0.0285,0.0299,0.0273,0.0272,0.0293,0.0294,0.0279,0.0278,0.0278,0.0278,0,-0.0375,-0.0364,-0.0369,-0.0357,-0.0353,-0.037,-0.0348,-0.0331,-0.0305,-0.0267,-0.0257,-0.0174,-0.0086,0.0021,0.0122,0.0195,0.0283,0.032,0.029,0.03,0.0346,0.0342,0.039,0.0391,0.0391,0.0392,0.0393,0,-0.0395,-0.04,-0.0395,-0.04,-0.039,-0.0398,-0.0384,-0.036,-0.0341,-0.0281,-0.0262,-0.0181,-0.0102,0.0054,0.0169,0.0297,0.0306,0.0355,0.035,0.0347,0.0357,0.0352,0.0348,0.0343,0.0343,0.0343,0.0343,0,-0.0416,-0.0416,-0.0413,-0.0414,-0.0418,-0.0409,-0.0398,-0.0388,-0.0348,-0.0314,-0.0255,-0.0199,-0.0059,0.0065,0.0215,0.0291,0.0329,0.036,0.0364,0.0313,0.0307,0.0315,0.0311,0.0344,0.0344,0.0344,0.0344,0.0344,-0.0425,-0.0425,-0.0417,-0.0417,-0.0421,-0.0415,-0.0401,-0.0379,-0.0347,-0.0288,-0.025,-0.0169,-0.0059,0.0141,0.0252,0.0347,0.0353,0.0386,0.0385,0.0383,0.0362,0.0356,0.0399,0.04,0.04,0.04,0.04,0,-0.0415,-0.0415,-0.0417,-0.0418,-0.0417,-0.0418,-0.0394,-0.0369,-0.0324,-0.0284,-0.0228,-0.0112,0.0017,0.0126,0.0278,0.038,0.0369,0.0393,0.0361,0.036,0.036,0.0335,0.0367,0.0367,0.0367,0.0367,0,0,-0.0416,-0.0409,-0.0406,-0.0407,-0.0408,-0.039,-0.0373,-0.0334,-0.0301,-0.0244,-0.0201,-0.0137,-0.0001,0.0104,0.0222,0.0297,0.0303,0.0302,0.0318,0.0265,0.0263,0.0345,0.0306,0,0,0,0,0]}],[{"header":{"parameterUnit":"m.s-1","parameterCategory":2,"la1":30.2991,"la2":30.254,"lo1":-89.0895,"lo2":-89.0444,"dy":0.0017,"dx":0.0017,"nx":28,"ny":28,"refTime":"2025-01-15T03:00:00:Z","depth":"4","parameterNumber":2,"parameterNumberName":"U-component_of_CURRENTS"},"data":[0,0,0,0,0,0,0,0,0,0,0,0,0,0,0,0,0,0,0,0,0,0,0,0,0,0,0,0,0,0,0,0,0,0,0,0,0,0,0,0,0,0,0,0,0,0,0,0,0,0,0,0,0,0,0,0,0,0,-0.0519,-0.0519,0,-0.0492,-0.0491,-0.0491,-0.0485,-0.0485,-0.0485,-0.0485,-0.0467,-0.0467,-0.0466,0,0,0,0,0,0,0,0,0,0,0,0,0,-0.0581,-0.058,-0.0519,-0.0519,-0.0518,-0.0492,-0.0491,-0.0491,-0.0485,-0.0485,-0.0485,-0.0485,-0.0467,-0.0467,-0.0466,0,0,0,0,0,0,0,0,0,0,0,0,0,-0.0556,-0.058,-0.0519,-0.051,-0.0509,-0.0492,-0.0491,-0.0491,-0.0485,-0.0485,-0.0485,-0.0485,-0.0467,-0.0467,-0.0466,-0.0462,0,0,-0.0464,-0.0464,0,0,0,0,0,0,0,0,-0.0557,-0.0554,-0.0512,-0.0511,-0.0509,-0.049,-0.0506,-0.0481,-0.0485,-0.0497,-0.0485,-0.0485,-0.0474,-0.0473,-0.0471,-0.0461,-0.046,-0.0464,-0.0463,-0.0463,-0.0463,0,0,0,0,0,0,0,-0.0559,-0.0555,-0.0511,-0.0511,-0.051,-0.0512,-0.0509,-0.0502,-0.0488,-0.0496,-0.0495,-0.0488,-0.0474,-0.0472,-0.047,-0.046,-0.0464,-0.0463,-0.0463,-0.0463,-0.0478,-0.0478,0,0,0,0,0,0,-0.0557,-0.0557,-0.0511,-0.051,-0.0531,-0.0511,-0.0507,-0.0498,-0.0488,-0.0485,-0.0488,-0.0488,-0.0473,-0.0471,-0.047,-0.0503,-0.0463,-0.0462,-0.0462,-0.0477,-0.0478,-0.0479,0,0,0,0,0,0,-0.0558,-0.0553,-0.0513,-0.0531,-0.0526,-0.0509,-0.0499,-0.0497,-0.0502,-0.0481,-0.048,-0.0495,-0.0473,-0.0471,-0.0467,-0.0501,-0.0462,-0.0462,-0.0476,-0.0477,-0.0478,-0.0544,0,0,0,0,0,0,-0.056,-0.0554,-0.0558,-0.0531,-0.0524,-0.0512,-0.0499,-0.0497,-0.0496,-0.0496,-0.0487,-0.0485,-0.0473,-0.0468,-0.0467,-0.0499,-0.0461,-0.0475,-0.0476,-0.0478,-0.0541,-0.0548,-0.0553,0,0,0,0,0,-0.0562,-0.0561,-0.0558,-0.0553,-0.0526,-0.0512,-0.051,-0.05,-0.0497,-0.0504,-0.0492,-0.0485,-0.0477,-0.0468,-0.0466,-0.0499,-0.0474,-0.0476,-0.0478,-0.0538,-0.0547,-0.0553,0,0,0,0,0,0,-0.059,-0.056,-0.0556,-0.0546,-0.0536,-0.0511,-0.0513,-0.0506,-0.0503,-0.0503,-0.0487,-0.0484,-0.0494,-0.0483,-0.0473,-0.0507,-0.0478,-0.048,-0.0525,-0.0533,-0.0539,-0.0548,-0.046,0,0,0,0,0,-0.0597,-0.0591,-0.0565,-0.0561,-0.0555,-0.0538,-0.0534,-0.0526,-0.0513,-0.0512,-0.0505,-0.0499,-0.0499,-0.0505,-0.0495,-0.0512,-0.0504,-0.0534,-0.054,-0.0546,-0.0552,-0.0578,-0.0588,-0.0485,-0.0485,-0.0485,0,0,-0.061,-0.059,-0.0589,-0.0568,-0.0557,-0.0556,-0.0536,-0.053,-0.0537,-0.051,-0.0521,-0.0514,-0.0504,-0.0521,-0.0527,-0.052,-0.0567,-0.0548,-0.0553,-0.0556,-0.0581,-0.0592,-0.0601,-0.0486,-0.0486,-0.0486,0,0,-0.0631,-0.061,-0.0618,-0.0603,-0.0586,-0.0575,-0.0576,-0.0558,-0.0559,-0.0559,-0.055,-0.0564,-0.0553,-0.0568,-0.057,-0.0605,-0.0591,-0.0605,-0.0655,-0.0682,-0.0691,-0.0698,-0.0685,-0.0692,-0.0618,-0.0619,-0.0619,0,-0.0651,-0.0646,-0.0621,-0.0618,-0.0611,-0.0586,-0.0596,-0.0589,-0.0577,-0.0589,-0.0568,-0.0585,-0.0579,-0.0619,-0.0634,-0.0622,-0.0618,-0.063,-0.0691,-0.0699,-0.0706,-0.0691,-0.0697,-0.0622,-0.0622,-0.0621,-0.0621,0,-0.0669,-0.067,-0.0668,-0.0659,-0.0655,-0.0651,-0.0634,-0.064,-0.0633,-0.0634,-0.066,-0.0652,-0.067,-0.0676,-0.0663,-0.0722,-0.0694,-0.0689,-0.0676,-0.072,-0.0701,-0.0706,-0.0627,-0.0626,-0.0625,-0.0624,0,0,-0.0697,-0.0688,-0.0688,-0.0692,-0.0672,-0.0667,-0.0682,-0.0694,-0.0707,-0.0709,-0.0739,-0.0755,-0.076,-0.0763,-0.0763,-0.079,-0.083,-0.0767,-0.0767,-0.0759,-0.0863,-0.0794,-0.0792,-0.0841,-0.0842,-0.0844,-0.0824,0,-0.0723,-0.0731,-0.0724,-0.0739,-0.0739,-0.0724,-0.074,-0.0748,-0.0746,-0.0765,-0.0782,-0.0798,-0.079,-0.0802,-0.0835,-0.0825,-0.0849,-0.0834,-0.0816,-0.0815,-0.0754,-0.0799,-0.0849,-0.0827,-0.0828,-0.0829,-0.083,0,-0.0738,-0.074,-0.0764,-0.0773,-0.0774,-0.0783,-0.0797,-0.0812,-0.0834,-0.0834,-0.0867,-0.0862,-0.0907,-0.0883,-0.0916,-0.0906,-0.0896,-0.0885,-0.0884,-0.0802,-0.0757,-0.0776,-0.0839,-0.0838,-0.0837,-0.0837,-0.0836,0,-0.0747,-0.0765,-0.0788,-0.0783,-0.0794,-0.0811,-0.0823,-0.084,-0.0845,-0.0883,-0.0879,-0.0932,-0.0933,-0.0958,-0.0932,-0.0932,-0.0942,-0.0938,-0.0865,-0.0858,-0.0895,-0.0887,-0.0968,-0.0968,-0.0968,-0.0968,-0.0968,0,-0.0751,-0.0767,-0.0793,-0.0791,-0.0818,-0.083,-0.0853,-0.0867,-0.0885,-0.0887,-0.0922,-0.0914,-0.0952,-0.095,-0.0949,-0.0913,-0.096,-0.0878,-0.086,-0.0919,-0.0914,-0.0897,-0.089,-0.0967,-0.0967,-0.0967,-0.0967,0,-0.0744,-0.0764,-0.0781,-0.0807,-0.0816,-0.0833,-0.0843,-0.0845,-0.0877,-0.0876,-0.0887,-0.0902,-0.0901,-0.0914,-0.0927,-0.0906,-0.0896,-0.087,-0.0908,-0.0891,-0.0788,-0.0784,-0.0798,-0.0796,-0.0794,-0.0792,-0.0791,0,-0.0732,-0.0747,-0.0778,-0.0777,-0.0785,-0.0807,-0.0805,-0.0835,-0.0825,-0.0849,-0.0836,-0.0846,-0.085,-0.0807,-0.0843,-0.084,-0.0831,-0.0817,-0.0834,-0.0796,-0.0777,-0.0775,-0.0774,-0.0788,-0.0787,-0.0787,-0.0786,0,-0.0706,-0.073,-0.0736,-0.0737,-0.0737,-0.0742,-0.0743,-0.0732,-0.0761,-0.079,-0.076,-0.0758,-0.0746,-0.0758,-0.0751,-0.0753,-0.0831,-0.0797,-0.0801,-0.0817,-0.0783,-0.0766,-0.0767,-0.078,-0.0781,-0.0781,-0.0782,0,-0.0677,-0.0674,-0.0682,-0.0676,-0.0685,-0.0671,-0.0681,-0.0659,-0.0664,-0.069,-0.0676,-0.0697,-0.0723,-0.071,-0.0711,-0.0705,-0.0704,-0.0692,-0.0702,-0.071,-0.0693,-0.0638,-0.0582,0,0,0,0,0,-0.0636,-0.0621,-0.0611,-0.06,-0.0612,-0.0616,-0.0631,-0.0642,-0.0669,-0.0624,-0.0648,-0.0636,-0.0631,-0.0648,-0.0625,-0.0685,-0.0715,-0.0657,-0.0709,-0.0742,-0.075,-0.0741,0,0,0,0,0,0,-0.0601,-0.0599,-0.0587,-0.0544,-0.0527,-0.0529,-0.0541,-0.0558,-0.0538,-0.0572,-0.0571,-0.0598,-0.0604,-0.063,-0.0611,-0.0617,-0.0637,-0.0676,-0.0674,-0.0737,-0.0744,-0.0751,-0.0744,0,0,0,0,0]},{"header":{"parameterUnit":"m.s-1","parameterCategory":2,"la1":30.2991,"la2":30.254,"lo1":-89.0895,"lo2":-89.0444,"dy":0.0017,"dx":0.0017,"nx":28,"ny":28,"refTime":"2025-01-15T03:00:00:Z","depth":"4","parameterNumber":3,"parameterNumberName":"V-component_of_CURRENTS"},"data":[0,0,0,0,0,0,0,0,0,0,0,0,0,0,0,0,0,0,0,0,0,0,0,0,0,0,0,0,0,0,0,0,0,0,0,0,0,0,0,0,0,0,0,0,0,0,0,0,0,0,0,0,0,0,0,0,0,0,0.0326,0.0326,0,0.0339,0.0339,0.0339,0.0359,0.036,0.036,0.0361,0.0362,0.0362,0.0362,0,0,0,0,0,0,0,0,0,0,0,0,0,0.0256,0.0257,0.0326,0.0326,0.0327,0.0339,0.0339,0.0339,0.0359,0.036,0.036,0.0361,0.0363,0.0362,0.0362,0,0,0,0,0,0,0,0,0,0,0,0,0,0.0278,0.0258,0.0326,0.0339,0.034,0.0339,0.0339,0.0339,0.0359,0.036,0.0361,0.0361,0.0363,0.0362,0.0362,0.0344,0,0,0.036,0.036,0,0,0,0,0,0,0,0,0.0277,0.0281,0.0337,0.0338,0.034,0.0349,0.0315,0.0341,0.0359,0.0351,0.0361,0.0362,0.0357,0.0357,0.0357,0.0344,0.0344,0.036,0.0359,0.0359,0.0359,0,0,0,0,0,0,0,0.0276,0.028,0.033,0.0337,0.0339,0.0322,0.0327,0.032,0.0349,0.0352,0.0353,0.0356,0.0358,0.0357,0.0357,0.0344,0.036,0.0359,0.0359,0.0359,0.034,0.034,0,0,0,0,0,0,0.0279,0.0279,0.033,0.0331,0.0311,0.0324,0.0328,0.0344,0.0349,0.0351,0.0356,0.0357,0.0358,0.0357,0.0357,0.0351,0.0359,0.0359,0.0358,0.034,0.034,0.034,0,0,0,0,0,0,0.0278,0.0284,0.0329,0.0305,0.031,0.0325,0.0342,0.0344,0.035,0.0353,0.0354,0.0359,0.0358,0.0358,0.0349,0.0351,0.0358,0.0358,0.0341,0.034,0.034,0.0329,0,0,0,0,0,0,0.0276,0.0284,0.0296,0.0306,0.0311,0.0327,0.0342,0.0344,0.035,0.0353,0.0356,0.0357,0.0359,0.035,0.0348,0.035,0.0357,0.0341,0.034,0.034,0.033,0.0329,0.0328,0,0,0,0,0,0.0273,0.0288,0.0296,0.0302,0.0328,0.0326,0.0327,0.0339,0.035,0.0347,0.0349,0.0357,0.0348,0.0349,0.0347,0.0349,0.0341,0.0341,0.034,0.033,0.0329,0.0328,0,0,0,0,0,0,0.0261,0.0291,0.0301,0.0324,0.0324,0.033,0.0329,0.0338,0.0338,0.0342,0.0348,0.0348,0.0344,0.0344,0.0345,0.0343,0.0348,0.0348,0.0341,0.034,0.0339,0.0332,0.0357,0,0,0,0,0,0.0264,0.0282,0.0299,0.0311,0.0313,0.0321,0.0322,0.033,0.0332,0.0334,0.0337,0.034,0.034,0.0338,0.0337,0.0328,0.0337,0.0331,0.033,0.0329,0.0323,0.0343,0.0344,0.0339,0.0339,0.0339,0,0,0.0252,0.0279,0.0282,0.0309,0.031,0.0306,0.0323,0.0324,0.0321,0.0332,0.0326,0.0334,0.0337,0.0332,0.033,0.0333,0.0334,0.0329,0.0328,0.0322,0.0343,0.0344,0.0344,0.0339,0.0339,0.0339,0,0,0.023,0.0268,0.0267,0.0275,0.0286,0.0295,0.0296,0.0303,0.0308,0.0301,0.0315,0.0321,0.0315,0.0321,0.0323,0.0314,0.0328,0.0318,0.0306,0.0326,0.0326,0.0327,0.0334,0.0335,0.0317,0.0317,0.0317,0,0.0222,0.0231,0.026,0.0262,0.0265,0.0289,0.0277,0.0284,0.0288,0.0289,0.0297,0.0305,0.031,0.0311,0.031,0.0312,0.0322,0.031,0.0325,0.0326,0.0327,0.0333,0.0335,0.0317,0.0317,0.0317,0.0317,0,0.0188,0.0203,0.0201,0.0219,0.0222,0.022,0.0235,0.0241,0.0255,0.0263,0.0268,0.0279,0.0285,0.0293,0.0295,0.0306,0.031,0.0323,0.0328,0.0326,0.0333,0.0335,0.0316,0.0316,0.0316,0.0316,0,0,0.0157,0.0176,0.0175,0.018,0.0204,0.0204,0.0204,0.021,0.0215,0.0228,0.0229,0.0241,0.0259,0.0262,0.0278,0.0295,0.031,0.0308,0.031,0.0315,0.0346,0.0322,0.0322,0.0329,0.033,0.033,0.0347,0,0.0123,0.0116,0.0135,0.0125,0.0123,0.0155,0.0151,0.0164,0.0182,0.0193,0.0218,0.0225,0.0244,0.0252,0.0272,0.03,0.0315,0.0303,0.0346,0.0347,0.0327,0.0323,0.0331,0.0348,0.0349,0.0349,0.0349,0,0.0081,0.009,0.0068,0.0091,0.0091,0.009,0.0107,0.0106,0.0132,0.0145,0.0168,0.0194,0.0217,0.0238,0.0284,0.0277,0.0306,0.0331,0.0333,0.0314,0.0327,0.0352,0.0353,0.0352,0.0352,0.0352,0.0352,0,0.004,0.0049,0.0032,0.0039,0.0059,0.0058,0.0068,0.0089,0.0091,0.0119,0.0129,0.0166,0.0183,0.0228,0.0277,0.0284,0.0329,0.0347,0.0352,0.035,0.0372,0.0372,0.038,0.038,0.038,0.038,0.038,0,0.0007,-0.0001,0.0015,0.0012,-0.0001,0.0023,0.0017,0.0033,0.0053,0.0057,0.0102,0.0116,0.0183,0.0221,0.0268,0.0307,0.0323,0.0343,0.0353,0.0366,0.0365,0.0374,0.0373,0.0381,0.0381,0.038,0.038,0,-0.004,-0.0032,-0.004,-0.0024,-0.0021,-0.0031,-0.0013,-0.0009,0.0009,0.0019,0.0027,0.0077,0.0122,0.0185,0.0254,0.0287,0.0333,0.0346,0.0341,0.0352,0.0344,0.0342,0.0351,0.035,0.035,0.0349,0.0349,0,-0.0069,-0.008,-0.0072,-0.0072,-0.0064,-0.0067,-0.0065,-0.0042,-0.0032,-0.0004,0.0,0.0044,0.0083,0.0153,0.0221,0.0297,0.0313,0.0335,0.035,0.0331,0.0341,0.034,0.0339,0.0348,0.0348,0.0347,0.0347,0,-0.0117,-0.0115,-0.0116,-0.0112,-0.011,-0.0111,-0.01,-0.0098,-0.007,-0.0052,-0.0023,0.0025,0.007,0.0138,0.0193,0.0253,0.032,0.0329,0.0331,0.0346,0.0328,0.0337,0.0337,0.0345,0.0345,0.0346,0.0346,0,-0.015,-0.0161,-0.0154,-0.0149,-0.0152,-0.015,-0.0136,-0.0113,-0.0106,-0.0063,-0.0058,0.0003,0.0043,0.0114,0.0167,0.0218,0.0238,0.0262,0.0268,0.0271,0.0245,0.021,0.0194,0,0,0,0,0,-0.018,-0.0187,-0.0184,-0.018,-0.0179,-0.0178,-0.0158,-0.0136,-0.0109,-0.0095,-0.0074,-0.0029,0.0049,0.0085,0.0129,0.0158,0.0245,0.0212,0.0276,0.0333,0.0336,0.0317,0,0,0,0,0,0,-0.0193,-0.0208,-0.0195,-0.0207,-0.0208,-0.0208,-0.0197,-0.0169,-0.0152,-0.0118,-0.0078,-0.0037,0.0038,0.0007,0.0117,0.0135,0.018,0.0254,0.0255,0.0332,0.0334,0.0336,0.0317,0,0,0,0,0]}]]